iso_date,epoch_date,Year,Hour,Min,DOY,POS_DOY,Lat,Lon,BP,Ts,Ta,has_bp,has_ts,has_ta,BuoyID,Buoy_Type,Buoy_Owner,Logistics,Hemisphere
2020-02-03T00:00:00Z,1580688000,2020,0,0,34.0,34.0,-76.977,-162.428,-999.00,-1.06,-999.0,no,yes,no,300234068058520,SVPGHI,AOML,LAURA_BASSI,South
2020-02-03T01:00:02Z,1580691603,2020,1,0,34.0417,34.0417,-76.977,-162.445,-999.00,-0.79,-999.0,no,yes,no,300234068058520,SVPGHI,AOML,LAURA_BASSI,South
2020-02-03T01:59:57Z,1580695197,2020,2,0,34.0833,34.0833,-76.976,-162.473,-999.00,-0.71,-999.0,no,yes,no,300234068058520,SVPGHI,AOML,LAURA_BASSI,South
2020-02-03T03:00:00Z,1580698800,2020,3,0,34.125,34.125,-76.973,-162.504,-999.00,-0.79,-999.0,no,yes,no,300234068058520,SVPGHI,AOML,LAURA_BASSI,South
2020-02-03T04:00:02Z,1580702403,2020,4,0,34.1667,34.1667,-76.97,-162.534,-999.00,-0.78,-999.0,no,yes,no,300234068058520,SVPGHI,AOML,LAURA_BASSI,South
2020-02-03T04:59:57Z,1580705997,2020,5,0,34.2083,34.2083,-76.967,-162.563,-999.00,-0.79,-999.0,no,yes,no,300234068058520,SVPGHI,AOML,LAURA_BASSI,South
2020-02-03T06:00:00Z,1580709600,2020,6,0,34.25,34.25,-76.963,-162.6,-999.00,-0.86,-999.0,no,yes,no,300234068058520,SVPGHI,AOML,LAURA_BASSI,South
2020-02-03T07:59:57Z,1580716797,2020,8,0,34.3333,34.3333,-76.957,-162.686,-999.00,-1.19,-999.0,no,yes,no,300234068058520,SVPGHI,AOML,LAURA_BASSI,South
2020-02-03T09:00:00Z,1580720400,2020,9,0,34.375,34.375,-76.956,-162.736,-999.00,-0.78,-999.0,no,yes,no,300234068058520,SVPGHI,AOML,LAURA_BASSI,South
2020-02-03T10:00:02Z,1580724003,2020,10,0,34.4167,34.4167,-76.958,-162.783,-999.00,-0.78,-999.0,no,yes,no,300234068058520,SVPGHI,AOML,LAURA_BASSI,South
2020-02-03T10:59:57Z,1580727597,2020,11,0,34.4583,34.4583,-76.962,-162.825,-999.00,-0.87,-999.0,no,yes,no,300234068058520,SVPGHI,AOML,LAURA_BASSI,South
2020-02-03T12:00:00Z,1580731200,2020,12,0,34.5,34.5,-76.963,-162.857,-999.00,-1.02,-999.0,no,yes,no,300234068058520,SVPGHI,AOML,LAURA_BASSI,South
2020-02-03T13:00:02Z,1580734803,2020,13,0,34.5417,34.5417,-76.962,-162.888,-999.00,-0.79,-999.0,no,yes,no,300234068058520,SVPGHI,AOML,LAURA_BASSI,South
2020-02-03T13:59:57Z,1580738397,2020,14,0,34.5833,34.5833,-76.96,-162.922,-999.00,-0.79,-999.0,no,yes,no,300234068058520,SVPGHI,AOML,LAURA_BASSI,South
2020-02-03T15:00:00Z,1580742000,2020,15,0,34.625,34.625,-76.958,-162.961,-999.00,-1.13,-999.0,no,yes,no,300234068058520,SVPGHI,AOML,LAURA_BASSI,South
2020-02-03T16:00:02Z,1580745603,2020,16,0,34.6667,34.6667,-76.956,-163.007,-999.00,-0.81,-999.0,no,yes,no,300234068058520,SVPGHI,AOML,LAURA_BASSI,South
2020-02-03T16:59:57Z,1580749197,2020,17,0,34.7083,34.7083,-76.956,-163.059,-999.00,-0.84,-999.0,no,yes,no,300234068058520,SVPGHI,AOML,LAURA_BASSI,South
2020-02-03T18:00:00Z,1580752800,2020,18,0,34.75,34.75,-76.958,-163.101,-999.00,-0.88,-999.0,no,yes,no,300234068058520,SVPGHI,AOML,LAURA_BASSI,South
2020-02-03T19:00:02Z,1580756403,2020,19,0,34.7917,34.7917,-76.962,-163.135,-999.00,-1.11,-999.0,no,yes,no,300234068058520,SVPGHI,AOML,LAURA_BASSI,South
2020-02-03T19:59:57Z,1580759997,2020,20,0,34.8333,34.8333,-76.967,-163.157,-999.00,-0.86,-999.0,no,yes,no,300234068058520,SVPGHI,AOML,LAURA_BASSI,South
2020-02-03T21:00:00Z,1580763600,2020,21,0,34.875,34.875,-76.971,-163.169,-999.00,-1.1,-999.0,no,yes,no,300234068058520,SVPGHI,AOML,LAURA_BASSI,South
2020-02-03T22:00:02Z,1580767203,2020,22,0,34.9167,34.9167,-76.976,-163.182,-999.00,-1.34,-999.0,no,yes,no,300234068058520,SVPGHI,AOML,LAURA_BASSI,South
2020-02-03T22:59:57Z,1580770797,2020,23,0,34.9583,34.9583,-76.979,-163.189,-999.00,-1.31,-999.0,no,yes,no,300234068058520,SVPGHI,AOML,LAURA_BASSI,South
2020-02-04T00:00:00Z,1580774400,2020,0,0,35.0,35.0,-76.984,-163.191,-999.00,-1.28,-999.0,no,yes,no,300234068058520,SVPGHI,AOML,LAURA_BASSI,South
2020-02-04T01:00:02Z,1580778003,2020,1,0,35.0417,35.0417,-76.985,-163.186,-999.00,-1.21,-999.0,no,yes,no,300234068058520,SVPGHI,AOML,LAURA_BASSI,South
2020-02-04T01:59:57Z,1580781597,2020,2,0,35.0833,35.0833,-76.987,-163.177,-999.00,-1.18,-999.0,no,yes,no,300234068058520,SVPGHI,AOML,LAURA_BASSI,South
2020-02-04T03:00:00Z,1580785200,2020,3,0,35.125,35.125,-76.987,-163.161,-999.00,-1.42,-999.0,no,yes,no,300234068058520,SVPGHI,AOML,LAURA_BASSI,South
2020-02-04T04:00:02Z,1580788803,2020,4,0,35.1667,35.1667,-76.985,-163.156,-999.00,-1.07,-999.0,no,yes,no,300234068058520,SVPGHI,AOML,LAURA_BASSI,South
2020-02-04T04:59:57Z,1580792397,2020,5,0,35.2083,35.2083,-76.984,-163.154,-999.00,-0.96,-999.0,no,yes,no,300234068058520,SVPGHI,AOML,LAURA_BASSI,South
2020-02-04T06:00:00Z,1580796000,2020,6,0,35.25,35.25,-76.982,-163.155,-999.00,-0.98,-999.0,no,yes,no,300234068058520,SVPGHI,AOML,LAURA_BASSI,South
2020-02-04T07:00:02Z,1580799603,2020,7,0,35.2917,35.2917,-76.981,-163.16,-999.00,-1.02,-999.0,no,yes,no,300234068058520,SVPGHI,AOML,LAURA_BASSI,South
2020-02-04T10:00:02Z,1580810403,2020,10,0,35.4167,35.4167,-76.972,-163.175,-999.00,-0.93,-999.0,no,yes,no,300234068058520,SVPGHI,AOML,LAURA_BASSI,South
2020-02-04T10:59:57Z,1580813997,2020,11,0,35.4583,35.4583,-76.971,-163.178,-999.00,-0.93,-999.0,no,yes,no,300234068058520,SVPGHI,AOML,LAURA_BASSI,South
2020-02-04T12:00:00Z,1580817600,2020,12,0,35.5,35.5,-76.967,-163.187,-999.00,-0.98,-999.0,no,yes,no,300234068058520,SVPGHI,AOML,LAURA_BASSI,South
2020-02-04T13:00:02Z,1580821203,2020,13,0,35.5417,35.5417,-76.962,-163.201,-999.00,-1.07,-999.0,no,yes,no,300234068058520,SVPGHI,AOML,LAURA_BASSI,South
2020-02-04T13:59:57Z,1580824797,2020,14,0,35.5833,35.5833,-76.956,-163.211,-999.00,-1.14,-999.0,no,yes,no,300234068058520,SVPGHI,AOML,LAURA_BASSI,South
2020-02-04T15:00:00Z,1580828400,2020,15,0,35.625,35.625,-76.947,-163.219,-999.00,-1.16,-999.0,no,yes,no,300234068058520,SVPGHI,AOML,LAURA_BASSI,South
2020-02-04T16:00:02Z,1580832003,2020,16,0,35.6667,35.6667,-76.939,-163.24,-999.00,-1.06,-999.0,no,yes,no,300234068058520,SVPGHI,AOML,LAURA_BASSI,South
2020-02-04T16:59:57Z,1580835597,2020,17,0,35.7083,35.7083,-76.93,-163.258,-999.00,-1.11,-999.0,no,yes,no,300234068058520,SVPGHI,AOML,LAURA_BASSI,South
2020-02-04T18:00:00Z,1580839200,2020,18,0,35.75,35.75,-76.922,-163.285,-999.00,-1.02,-999.0,no,yes,no,300234068058520,SVPGHI,AOML,LAURA_BASSI,South
2020-02-04T19:00:02Z,1580842803,2020,19,0,35.7917,35.7917,-76.915,-163.317,-999.00,-0.88,-999.0,no,yes,no,300234068058520,SVPGHI,AOML,LAURA_BASSI,South
2020-02-04T19:59:57Z,1580846397,2020,20,0,35.8333,35.8333,-76.907,-163.349,-999.00,-0.9,-999.0,no,yes,no,300234068058520,SVPGHI,AOML,LAURA_BASSI,South
2020-02-04T21:00:00Z,1580850000,2020,21,0,35.875,35.875,-76.898,-163.38,-999.00,-0.97,-999.0,no,yes,no,300234068058520,SVPGHI,AOML,LAURA_BASSI,South
2020-02-04T22:00:02Z,1580853603,2020,22,0,35.9167,35.9167,-76.89,-163.408,-999.00,-0.88,-999.0,no,yes,no,300234068058520,SVPGHI,AOML,LAURA_BASSI,South
2020-02-04T22:59:57Z,1580857197,2020,23,0,35.9583,35.9583,-76.882,-163.436,-999.00,-0.93,-999.0,no,yes,no,300234068058520,SVPGHI,AOML,LAURA_BASSI,South
2020-02-05T00:00:00Z,1580860800,2020,0,0,36.0,36.0,-76.872,-163.463,-999.00,-0.94,-999.0,no,yes,no,300234068058520,SVPGHI,AOML,LAURA_BASSI,South
2020-02-05T01:00:02Z,1580864403,2020,1,0,36.0417,36.0417,-76.861,-163.488,-999.00,-1.0,-999.0,no,yes,no,300234068058520,SVPGHI,AOML,LAURA_BASSI,South
2020-02-05T01:59:57Z,1580867997,2020,2,0,36.0833,36.0833,-76.852,-163.514,-999.00,-1.13,-999.0,no,yes,no,300234068058520,SVPGHI,AOML,LAURA_BASSI,South
2020-02-05T03:00:00Z,1580871600,2020,3,0,36.125,36.125,-76.849,-163.531,-999.00,-0.95,-999.0,no,yes,no,300234068058520,SVPGHI,AOML,LAURA_BASSI,South
2020-02-05T04:00:02Z,1580875203,2020,4,0,36.1667,36.1667,-76.842,-163.558,-999.00,-0.98,-999.0,no,yes,no,300234068058520,SVPGHI,AOML,LAURA_BASSI,South
2020-02-05T04:59:57Z,1580878797,2020,5,0,36.2083,36.2083,-76.834,-163.583,-999.00,-1.01,-999.0,no,yes,no,300234068058520,SVPGHI,AOML,LAURA_BASSI,South
2020-02-05T06:00:00Z,1580882400,2020,6,0,36.25,36.25,-76.828,-163.602,-999.00,-1.0,-999.0,no,yes,no,300234068058520,SVPGHI,AOML,LAURA_BASSI,South
2020-02-05T07:00:02Z,1580886003,2020,7,0,36.2917,36.2917,-76.823,-163.61,-999.00,-1.09,-999.0,no,yes,no,300234068058520,SVPGHI,AOML,LAURA_BASSI,South
2020-02-05T07:59:57Z,1580889597,2020,8,0,36.3333,36.3333,-76.817,-163.62,-999.00,-1.08,-999.0,no,yes,no,300234068058520,SVPGHI,AOML,LAURA_BASSI,South
2020-02-05T09:00:00Z,1580893200,2020,9,0,36.375,36.375,-76.81,-163.629,-999.00,-1.16,-999.0,no,yes,no,300234068058520,SVPGHI,AOML,LAURA_BASSI,South
2020-02-05T10:00:02Z,1580896803,2020,10,0,36.4167,36.4167,-76.803,-163.638,-999.00,-1.14,-999.0,no,yes,no,300234068058520,SVPGHI,AOML,LAURA_BASSI,South
2020-02-05T10:59:57Z,1580900397,2020,11,0,36.4583,36.4583,-76.795,-163.654,-999.00,-1.15,-999.0,no,yes,no,300234068058520,SVPGHI,AOML,LAURA_BASSI,South
2020-02-05T12:00:00Z,1580904000,2020,12,0,36.5,36.5,-76.789,-163.674,-999.00,-1.12,-999.0,no,yes,no,300234068058520,SVPGHI,AOML,LAURA_BASSI,South
2020-02-05T13:00:02Z,1580907603,2020,13,0,36.5417,36.5417,-76.784,-163.702,-999.00,-1.13,-999.0,no,yes,no,300234068058520,SVPGHI,AOML,LAURA_BASSI,South
2020-02-05T14:01:58Z,1580911318,2020,14,2,36.5847,36.5847,-76.778,-163.729,-999.00,-1.15,-999.0,no,yes,no,300234068058520,SVPGHI,AOML,LAURA_BASSI,South
2020-02-05T15:00:00Z,1580914800,2020,15,0,36.625,36.625,-76.771,-163.753,-999.00,-1.18,-999.0,no,yes,no,300234068058520,SVPGHI,AOML,LAURA_BASSI,South
2020-02-05T16:00:02Z,1580918403,2020,16,0,36.6667,36.6667,-76.764,-163.775,-999.00,-1.74,-999.0,no,yes,no,300234068058520,SVPGHI,AOML,LAURA_BASSI,South
2020-02-05T16:59:57Z,1580921997,2020,17,0,36.7083,36.7083,-76.759,-163.791,-999.00,-1.32,-999.0,no,yes,no,300234068058520,SVPGHI,AOML,LAURA_BASSI,South
2020-02-05T18:00:00Z,1580925600,2020,18,0,36.75,36.75,-76.752,-163.797,-999.00,-1.58,-999.0,no,yes,no,300234068058520,SVPGHI,AOML,LAURA_BASSI,South
2020-02-05T19:00:02Z,1580929203,2020,19,0,36.7917,36.7917,-76.746,-163.798,-999.00,-1.68,-999.0,no,yes,no,300234068058520,SVPGHI,AOML,LAURA_BASSI,South
2020-02-05T19:59:57Z,1580932797,2020,20,0,36.8333,36.8333,-76.737,-163.8,-999.00,-1.49,-999.0,no,yes,no,300234068058520,SVPGHI,AOML,LAURA_BASSI,South
2020-02-05T21:00:00Z,1580936400,2020,21,0,36.875,36.875,-76.727,-163.81,-999.00,-1.41,-999.0,no,yes,no,300234068058520,SVPGHI,AOML,LAURA_BASSI,South
2020-02-05T22:00:02Z,1580940003,2020,22,0,36.9167,36.9167,-76.718,-163.829,-999.00,-1.3,-999.0,no,yes,no,300234068058520,SVPGHI,AOML,LAURA_BASSI,South
2020-02-05T22:59:57Z,1580943597,2020,23,0,36.9583,36.9583,-76.709,-163.839,-999.00,-1.24,-999.0,no,yes,no,300234068058520,SVPGHI,AOML,LAURA_BASSI,South
2020-02-06T00:00:00Z,1580947200,2020,0,0,37.0,37.0,-76.698,-163.855,-999.00,-1.19,-999.0,no,yes,no,300234068058520,SVPGHI,AOML,LAURA_BASSI,South
2020-02-06T01:00:02Z,1580950803,2020,1,0,37.0417,37.0417,-76.689,-163.872,-999.00,-1.35,-999.0,no,yes,no,300234068058520,SVPGHI,AOML,LAURA_BASSI,South
2020-02-06T01:59:57Z,1580954397,2020,2,0,37.0833,37.0833,-76.683,-163.887,-999.00,-1.09,-999.0,no,yes,no,300234068058520,SVPGHI,AOML,LAURA_BASSI,South
2020-02-06T03:00:00Z,1580958000,2020,3,0,37.125,37.125,-76.675,-163.897,-999.00,-1.08,-999.0,no,yes,no,300234068058520,SVPGHI,AOML,LAURA_BASSI,South
2020-02-06T04:00:02Z,1580961603,2020,4,0,37.1667,37.1667,-76.667,-163.915,-999.00,-1.45,-999.0,no,yes,no,300234068058520,SVPGHI,AOML,LAURA_BASSI,South
2020-02-06T04:59:57Z,1580965197,2020,5,0,37.2083,37.2083,-76.659,-163.929,-999.00,-1.35,-999.0,no,yes,no,300234068058520,SVPGHI,AOML,LAURA_BASSI,South
2020-02-06T06:00:00Z,1580968800,2020,6,0,37.25,37.25,-76.651,-163.94,-999.00,-1.2,-999.0,no,yes,no,300234068058520,SVPGHI,AOML,LAURA_BASSI,South
2020-02-06T07:00:02Z,1580972403,2020,7,0,37.2917,37.2917,-76.643,-163.943,-999.00,-1.3,-999.0,no,yes,no,300234068058520,SVPGHI,AOML,LAURA_BASSI,South
2020-02-06T07:59:57Z,1580975997,2020,8,0,37.3333,37.3333,-76.634,-163.947,-999.00,-1.18,-999.0,no,yes,no,300234068058520,SVPGHI,AOML,LAURA_BASSI,South
2020-02-06T09:00:00Z,1580979600,2020,9,0,37.375,37.375,-76.626,-163.953,-999.00,-1.44,-999.0,no,yes,no,300234068058520,SVPGHI,AOML,LAURA_BASSI,South
2020-02-06T10:00:02Z,1580983203,2020,10,0,37.4167,37.4167,-76.617,-163.965,-999.00,-1.67,-999.0,no,yes,no,300234068058520,SVPGHI,AOML,LAURA_BASSI,South
2020-02-06T10:59:57Z,1580986797,2020,11,0,37.4583,37.4583,-76.608,-163.979,-999.00,-1.14,-999.0,no,yes,no,300234068058520,SVPGHI,AOML,LAURA_BASSI,South
2020-02-06T12:00:00Z,1580990400,2020,12,0,37.5,37.5,-76.6,-163.995,-999.00,-1.32,-999.0,no,yes,no,300234068058520,SVPGHI,AOML,LAURA_BASSI,South
2020-02-06T13:00:02Z,1580994003,2020,13,0,37.5417,37.5417,-76.593,-164.011,-999.00,-1.0,-999.0,no,yes,no,300234068058520,SVPGHI,AOML,LAURA_BASSI,South
2020-02-06T13:59:57Z,1580997597,2020,14,0,37.5833,37.5833,-76.588,-164.025,-999.00,-1.51,-999.0,no,yes,no,300234068058520,SVPGHI,AOML,LAURA_BASSI,South
2020-02-06T15:00:00Z,1581001200,2020,15,0,37.625,37.625,-76.583,-164.032,-999.00,-1.55,-999.0,no,yes,no,300234068058520,SVPGHI,AOML,LAURA_BASSI,South
2020-02-06T16:00:02Z,1581004803,2020,16,0,37.6667,37.6667,-76.579,-164.029,-999.00,-1.79,-999.0,no,yes,no,300234068058520,SVPGHI,AOML,LAURA_BASSI,South
2020-02-06T16:59:57Z,1581008397,2020,17,0,37.7083,37.7083,-76.573,-164.023,-999.00,-1.76,-999.0,no,yes,no,300234068058520,SVPGHI,AOML,LAURA_BASSI,South
2020-02-06T18:00:00Z,1581012000,2020,18,0,37.75,37.75,-76.572,-164.037,-999.00,-0.91,-999.0,no,yes,no,300234068058520,SVPGHI,AOML,LAURA_BASSI,South
2020-02-06T19:00:02Z,1581015603,2020,19,0,37.7917,37.7917,-76.572,-164.055,-999.00,-0.88,-999.0,no,yes,no,300234068058520,SVPGHI,AOML,LAURA_BASSI,South
2020-02-06T20:02:58Z,1581019379,2020,20,3,37.8354,37.8354,-76.57,-164.068,-999.00,-0.88,-999.0,no,yes,no,300234068058520,SVPGHI,AOML,LAURA_BASSI,South
2020-02-06T21:00:00Z,1581022800,2020,21,0,37.875,37.875,-76.57,-164.082,-999.00,-0.87,-999.0,no,yes,no,300234068058520,SVPGHI,AOML,LAURA_BASSI,South
2020-02-06T22:02:03Z,1581026524,2020,22,2,37.9181,37.9181,-76.571,-164.101,-999.00,-0.85,-999.0,no,yes,no,300234068058520,SVPGHI,AOML,LAURA_BASSI,South
2020-02-07T00:03:01Z,1581033781,2020,0,3,38.0021,38.0021,-76.572,-164.129,-999.00,-0.82,-999.0,no,yes,no,300234068058520,SVPGHI,AOML,LAURA_BASSI,South
2020-02-07T01:00:02Z,1581037203,2020,1,0,38.0417,38.0417,-76.573,-164.139,-999.00,-0.82,-999.0,no,yes,no,300234068058520,SVPGHI,AOML,LAURA_BASSI,South
2020-02-07T01:59:57Z,1581040797,2020,2,0,38.0833,38.0833,-76.574,-164.149,-999.00,-0.82,-999.0,no,yes,no,300234068058520,SVPGHI,AOML,LAURA_BASSI,South
2020-02-07T03:04:01Z,1581044642,2020,3,4,38.1278,38.1278,-76.574,-164.159,-999.00,-0.82,-999.0,no,yes,no,300234068058520,SVPGHI,AOML,LAURA_BASSI,South
2020-02-07T04:02:03Z,1581048124,2020,4,2,38.1681,38.1681,-76.574,-164.167,-999.00,-0.82,-999.0,no,yes,no,300234068058520,SVPGHI,AOML,LAURA_BASSI,South
2020-02-07T04:59:57Z,1581051597,2020,5,0,38.2083,38.2083,-76.573,-164.176,-999.00,-0.83,-999.0,no,yes,no,300234068058520,SVPGHI,AOML,LAURA_BASSI,South
2020-02-07T06:00:00Z,1581055200,2020,6,0,38.25,38.25,-76.572,-164.186,-999.00,-0.83,-999.0,no,yes,no,300234068058520,SVPGHI,AOML,LAURA_BASSI,South
2020-02-07T07:02:55Z,1581058976,2020,7,3,38.2937,38.2937,-76.572,-164.192,-999.00,-0.84,-999.0,no,yes,no,300234068058520,SVPGHI,AOML,LAURA_BASSI,South
2020-02-07T07:59:57Z,1581062397,2020,8,0,38.3333,38.3333,-76.57,-164.2,-999.00,-0.84,-999.0,no,yes,no,300234068058520,SVPGHI,AOML,LAURA_BASSI,South
2020-02-07T09:00:00Z,1581066000,2020,9,0,38.375,38.375,-76.569,-164.209,-999.00,-0.85,-999.0,no,yes,no,300234068058520,SVPGHI,AOML,LAURA_BASSI,South
2020-02-07T10:01:03Z,1581069663,2020,10,1,38.4174,38.4174,-76.567,-164.217,-999.00,-0.86,-999.0,no,yes,no,300234068058520,SVPGHI,AOML,LAURA_BASSI,South
2020-02-07T10:59:57Z,1581073197,2020,11,0,38.4583,38.4583,-76.564,-164.226,-999.00,-0.86,-999.0,no,yes,no,300234068058520,SVPGHI,AOML,LAURA_BASSI,South
2020-02-07T12:00:00Z,1581076800,2020,12,0,38.5,38.5,-76.561,-164.237,-999.00,-0.86,-999.0,no,yes,no,300234068058520,SVPGHI,AOML,LAURA_BASSI,South
2020-02-07T13:00:02Z,1581080403,2020,13,0,38.5417,38.5417,-76.558,-164.248,-999.00,-0.91,-999.0,no,yes,no,300234068058520,SVPGHI,AOML,LAURA_BASSI,South
2020-02-07T13:59:57Z,1581083997,2020,14,0,38.5833,38.5833,-76.555,-164.269,-999.00,-0.89,-999.0,no,yes,no,300234068058520,SVPGHI,AOML,LAURA_BASSI,South
2020-02-07T15:00:00Z,1581087600,2020,15,0,38.625,38.625,-76.553,-164.285,-999.00,-0.88,-999.0,no,yes,no,300234068058520,SVPGHI,AOML,LAURA_BASSI,South
2020-02-07T16:00:02Z,1581091203,2020,16,0,38.6667,38.6667,-76.553,-164.297,-999.00,-0.89,-999.0,no,yes,no,300234068058520,SVPGHI,AOML,LAURA_BASSI,South
2020-02-07T16:59:57Z,1581094797,2020,17,0,38.7083,38.7083,-76.553,-164.304,-999.00,-0.88,-999.0,no,yes,no,300234068058520,SVPGHI,AOML,LAURA_BASSI,South
2020-02-07T18:00:00Z,1581098400,2020,18,0,38.75,38.75,-76.552,-164.307,-999.00,-0.92,-999.0,no,yes,no,300234068058520,SVPGHI,AOML,LAURA_BASSI,South
2020-02-07T19:00:02Z,1581102003,2020,19,0,38.7917,38.7917,-76.55,-164.312,-999.00,-0.91,-999.0,no,yes,no,300234068058520,SVPGHI,AOML,LAURA_BASSI,South
2020-02-07T19:59:57Z,1581105597,2020,20,0,38.8333,38.8333,-76.549,-164.317,-999.00,-0.91,-999.0,no,yes,no,300234068058520,SVPGHI,AOML,LAURA_BASSI,South
2020-02-07T21:00:00Z,1581109200,2020,21,0,38.875,38.875,-76.547,-164.323,-999.00,-0.9,-999.0,no,yes,no,300234068058520,SVPGHI,AOML,LAURA_BASSI,South
2020-02-07T22:00:02Z,1581112803,2020,22,0,38.9167,38.9167,-76.545,-164.328,-999.00,-0.88,-999.0,no,yes,no,300234068058520,SVPGHI,AOML,LAURA_BASSI,South
2020-02-07T22:59:57Z,1581116397,2020,23,0,38.9583,38.9583,-76.542,-164.332,-999.00,-0.83,-999.0,no,yes,no,300234068058520,SVPGHI,AOML,LAURA_BASSI,South
2020-02-08T00:00:00Z,1581120000,2020,0,0,39.0,39.0,-76.543,-164.347,-999.00,-0.82,-999.0,no,yes,no,300234068058520,SVPGHI,AOML,LAURA_BASSI,South
2020-02-08T01:00:02Z,1581123603,2020,1,0,39.0417,39.0417,-76.543,-164.363,-999.00,-0.8,-999.0,no,yes,no,300234068058520,SVPGHI,AOML,LAURA_BASSI,South
2020-02-08T01:59:57Z,1581127197,2020,2,0,39.0833,39.0833,-76.543,-164.37,-999.00,-0.79,-999.0,no,yes,no,300234068058520,SVPGHI,AOML,LAURA_BASSI,South
2020-02-08T03:00:00Z,1581130800,2020,3,0,39.125,39.125,-76.544,-164.376,-999.00,-0.76,-999.0,no,yes,no,300234068058520,SVPGHI,AOML,LAURA_BASSI,South
2020-02-08T04:00:02Z,1581134403,2020,4,0,39.1667,39.1667,-76.545,-164.38,-999.00,-0.76,-999.0,no,yes,no,300234068058520,SVPGHI,AOML,LAURA_BASSI,South
2020-02-08T04:59:57Z,1581137997,2020,5,0,39.2083,39.2083,-76.546,-164.382,-999.00,-0.77,-999.0,no,yes,no,300234068058520,SVPGHI,AOML,LAURA_BASSI,South
2020-02-08T06:00:00Z,1581141600,2020,6,0,39.25,39.25,-76.547,-164.379,-999.00,-0.77,-999.0,no,yes,no,300234068058520,SVPGHI,AOML,LAURA_BASSI,South
2020-02-08T07:00:02Z,1581145203,2020,7,0,39.2917,39.2917,-76.548,-164.372,-999.00,-0.78,-999.0,no,yes,no,300234068058520,SVPGHI,AOML,LAURA_BASSI,South
2020-02-08T07:59:57Z,1581148797,2020,8,0,39.3333,39.3333,-76.548,-164.364,-999.00,-0.78,-999.0,no,yes,no,300234068058520,SVPGHI,AOML,LAURA_BASSI,South
2020-02-08T09:00:00Z,1581152400,2020,9,0,39.375,39.375,-76.546,-164.365,-999.00,-0.79,-999.0,no,yes,no,300234068058520,SVPGHI,AOML,LAURA_BASSI,South
2020-02-08T10:00:02Z,1581156003,2020,10,0,39.4167,39.4167,-76.544,-164.375,-999.00,-0.81,-999.0,no,yes,no,300234068058520,SVPGHI,AOML,LAURA_BASSI,South
2020-02-08T10:59:57Z,1581159597,2020,11,0,39.4583,39.4583,-76.541,-164.383,-999.00,-0.82,-999.0,no,yes,no,300234068058520,SVPGHI,AOML,LAURA_BASSI,South
2020-02-08T12:00:00Z,1581163200,2020,12,0,39.5,39.5,-76.54,-164.387,-999.00,-0.82,-999.0,no,yes,no,300234068058520,SVPGHI,AOML,LAURA_BASSI,South
2020-02-08T13:00:02Z,1581166803,2020,13,0,39.5417,39.5417,-76.538,-164.399,-999.00,-0.82,-999.0,no,yes,no,300234068058520,SVPGHI,AOML,LAURA_BASSI,South
2020-02-08T13:59:57Z,1581170397,2020,14,0,39.5833,39.5833,-76.538,-164.401,-999.00,-0.82,-999.0,no,yes,no,300234068058520,SVPGHI,AOML,LAURA_BASSI,South
2020-02-08T15:00:00Z,1581174000,2020,15,0,39.625,39.625,-76.536,-164.406,-999.00,-0.83,-999.0,no,yes,no,300234068058520,SVPGHI,AOML,LAURA_BASSI,South
2020-02-08T16:00:02Z,1581177603,2020,16,0,39.6667,39.6667,-76.535,-164.413,-999.00,-0.84,-999.0,no,yes,no,300234068058520,SVPGHI,AOML,LAURA_BASSI,South
2020-02-08T16:59:57Z,1581181197,2020,17,0,39.7083,39.7083,-76.534,-164.415,-999.00,-0.84,-999.0,no,yes,no,300234068058520,SVPGHI,AOML,LAURA_BASSI,South
2020-02-08T18:00:00Z,1581184800,2020,18,0,39.75,39.75,-76.53,-164.418,-999.00,-0.85,-999.0,no,yes,no,300234068058520,SVPGHI,AOML,LAURA_BASSI,South
2020-02-08T19:00:02Z,1581188403,2020,19,0,39.7917,39.7917,-76.527,-164.425,-999.00,-0.84,-999.0,no,yes,no,300234068058520,SVPGHI,AOML,LAURA_BASSI,South
2020-02-08T19:59:57Z,1581191997,2020,20,0,39.8333,39.8333,-76.525,-164.441,-999.00,-0.85,-999.0,no,yes,no,300234068058520,SVPGHI,AOML,LAURA_BASSI,South
2020-02-08T21:00:00Z,1581195600,2020,21,0,39.875,39.875,-76.525,-164.447,-999.00,-0.84,-999.0,no,yes,no,300234068058520,SVPGHI,AOML,LAURA_BASSI,South
2020-02-08T22:02:03Z,1581199324,2020,22,2,39.9181,39.9181,-76.523,-164.445,-999.00,-0.83,-999.0,no,yes,no,300234068058520,SVPGHI,AOML,LAURA_BASSI,South
2020-02-08T22:59:57Z,1581202797,2020,23,0,39.9583,39.9583,-76.521,-164.452,-999.00,-0.82,-999.0,no,yes,no,300234068058520,SVPGHI,AOML,LAURA_BASSI,South
2020-02-09T00:00:00Z,1581206400,2020,0,0,40.0,40.0,-76.52,-164.461,-999.00,-0.82,-999.0,no,yes,no,300234068058520,SVPGHI,AOML,LAURA_BASSI,South
2020-02-09T01:00:02Z,1581210003,2020,1,0,40.0417,40.0417,-76.519,-164.472,-999.00,-0.81,-999.0,no,yes,no,300234068058520,SVPGHI,AOML,LAURA_BASSI,South
2020-02-09T01:59:57Z,1581213597,2020,2,0,40.0833,40.0833,-76.517,-164.473,-999.00,-0.82,-999.0,no,yes,no,300234068058520,SVPGHI,AOML,LAURA_BASSI,South
2020-02-09T03:00:00Z,1581217200,2020,3,0,40.125,40.125,-76.517,-164.478,-999.00,-0.82,-999.0,no,yes,no,300234068058520,SVPGHI,AOML,LAURA_BASSI,South
2020-02-09T04:00:02Z,1581220803,2020,4,0,40.1667,40.1667,-76.516,-164.482,-999.00,-0.82,-999.0,no,yes,no,300234068058520,SVPGHI,AOML,LAURA_BASSI,South
2020-02-09T04:59:57Z,1581224397,2020,5,0,40.2083,40.2083,-76.516,-164.486,-999.00,-0.82,-999.0,no,yes,no,300234068058520,SVPGHI,AOML,LAURA_BASSI,South
2020-02-09T06:00:00Z,1581228000,2020,6,0,40.25,40.25,-76.517,-164.485,-999.00,-0.82,-999.0,no,yes,no,300234068058520,SVPGHI,AOML,LAURA_BASSI,South
2020-02-09T07:01:03Z,1581231663,2020,7,1,40.2924,40.2924,-76.519,-164.476,-999.00,-0.82,-999.0,no,yes,no,300234068058520,SVPGHI,AOML,LAURA_BASSI,South
2020-02-09T08:00:57Z,1581235258,2020,8,1,40.334,40.334,-76.518,-164.463,-999.00,-0.82,-999.0,no,yes,no,300234068058520,SVPGHI,AOML,LAURA_BASSI,South
2020-02-09T09:00:00Z,1581238800,2020,9,0,40.375,40.375,-76.518,-164.46,-999.00,-0.82,-999.0,no,yes,no,300234068058520,SVPGHI,AOML,LAURA_BASSI,South
2020-02-09T10:00:02Z,1581242403,2020,10,0,40.4167,40.4167,-76.514,-164.462,-999.00,-0.83,-999.0,no,yes,no,300234068058520,SVPGHI,AOML,LAURA_BASSI,South
2020-02-09T10:59:57Z,1581245997,2020,11,0,40.4583,40.4583,-76.512,-164.46,-999.00,-0.83,-999.0,no,yes,no,300234068058520,SVPGHI,AOML,LAURA_BASSI,South
2020-02-09T12:00:00Z,1581249600,2020,12,0,40.5,40.5,-76.511,-164.46,-999.00,-0.84,-999.0,no,yes,no,300234068058520,SVPGHI,AOML,LAURA_BASSI,South
2020-02-09T13:01:03Z,1581253263,2020,13,1,40.5424,40.5424,-76.51,-164.465,-999.00,-0.85,-999.0,no,yes,no,300234068058520,SVPGHI,AOML,LAURA_BASSI,South
2020-02-09T14:00:57Z,1581256858,2020,14,1,40.584,40.584,-76.508,-164.466,-999.00,-0.85,-999.0,no,yes,no,300234068058520,SVPGHI,AOML,LAURA_BASSI,South
2020-02-09T15:00:00Z,1581260400,2020,15,0,40.625,40.625,-76.508,-164.463,-999.00,-0.85,-999.0,no,yes,no,300234068058520,SVPGHI,AOML,LAURA_BASSI,South
2020-02-09T16:00:02Z,1581264003,2020,16,0,40.6667,40.6667,-76.507,-164.461,-999.00,-0.83,-999.0,no,yes,no,300234068058520,SVPGHI,AOML,LAURA_BASSI,South
2020-02-09T16:59:57Z,1581267597,2020,17,0,40.7083,40.7083,-76.506,-164.459,-999.00,-0.84,-999.0,no,yes,no,300234068058520,SVPGHI,AOML,LAURA_BASSI,South